Regional Weather Roundup
Issued by NWS Pendleton, OR

Home | Current Version | Previous Version | Text Only | Print | Product List | Glossary On
Versions: 1 2 3 4 5 6 7 8 9 10 11 12 13 14 15 16 17 18 19 20 21 22 23 24 25 26 27 28 29 30 31 32 33 34 35 36 37 38 39 40 41 42 43 44 45 46 47 48 49 50
000
ASUS46 KPDT 251604
RWRPDT
PENDLETON REGIONAL WEATHER ROUNDUP
NATIONAL WEATHER SERVICE PENDLETON OREGON
900 AM PDT WED MAY 25 2016

NOTE: FAIR INDICATES FEW OR NO CLOUDS BELOW 12,000 FEET WITH NO
SIGNIFICANT WEATHER AND/OR OBSTRUCTIONS TO VISIBILITY.

# INDICATES UNOFFICIAL STATION AND DATA

WAZ520-251710-
EAST SLOPES OF WASHINGTON CASCADES

CITY            SKY/WX      TMP DP  RH  WIND    PRES   REMARKS
#CLE ELUM HS    N/A         56  44  64  W9      29.99R
#CLE ELUM 2NW   N/A         55  44  66  S5      N/A
#GLENWOOD       N/A         53  49  86  CALM    30.03S
#MANASTASH CYN  N/A         55  42  61  CALM    29.98R
#NELSON 3SW     N/A         54  44  69  S1      30.18F
#NILE           N/A         56  44  64  W2      29.29R
#TEANAWAY 4NE   N/A         58  49  72  W2      N/A
#TROUT LAKE 1NE N/A         56  45  66  W14     30.02S
#TROUT LAKE 1E  N/A         57  47  69  CALM    30.01R
$$

WAZ521-251710-
SIMCOE HIGHLANDS

CITY            SKY/WX      TMP DP  RH  WIND    PRES   REMARKS
#GOLDENDALE 1NE N/A         56  39  53  SW3     N/A
#GOLDENDALE 4W  N/A         59  52  78  W6      30.07S
#GOODNOE HILLS  N/A         61  49  65  W20     29.94R
#LYLE 6NE       N/A         53  48  83  SW9     30.01S
$$

WAZ026-251710-
KITTITAS VALLEY

CITY            SKY/WX      TMP DP  RH  WIND    PRES   REMARKS
ELLENSBURG AP   SUNNY       63  44  50  NW20G32 30.00R
#ELLENSBURG CWU N/A         60  45  58  NW15    29.91S
#ELLENSBURG 3NE N/A         58  46  64  N13G24  30.00S
#ELLENSBURG     N/A         64  47  54  N7      N/A
#ELLENSBURG 13S N/A         60  43  53  CALM    N/A
#KITTITAS 4N    N/A         59  45  60  W13     30.04R
#KITTITAS 3S    N/A         60  49  67  NW7     29.96S
#THORP 6N       N/A         55  46  72  W10G28  29.99S
$$

WAZ027-251710-
YAKIMA VALLEY

CITY            SKY/WX      TMP DP  RH  WIND    PRES   REMARKS
SUNNYSIDE AP    SUNNY       60  45  58  CALM    30.02R
YAKIMA AIRPORT  SUNNY       68  43  40  N7      30.01R
YAKIMA-VAGABOND SUNNY       61  43  51  W3      29.99S
#DONALD 2NE     N/A         68  18  15  W6      28.85S
#GRANDVIEW      N/A         60  43  53  CALM    30.01R
#MABTON         N/A         62  49  62  W3      30.01R
#NACHES 2SW     N/A         60  45  58  W13     30.01R
#TERRACE HTS    N/A         60  45  58  NW1     29.94S
#TOPPENISH      N/A         62  44  52  CALM    29.91R
#WEST VALLEY    N/A         63  44  50  W2      29.96S
#W YAKIMA       N/A         63  45  52  W5      29.98R
#WHITE SWAN 5E  N/A         62  49  62  CALM    29.99S
#WILEY CITY 3W  N/A         65  44  46  CALM    29.98R
$$

WAZ028-251710-
LOWER COLUMBIA BASIN...WASHINGTON

CITY            SKY/WX      TMP DP  RH  WIND    PRES   REMARKS
PASCO           SUNNY       65  46  50  CALM    30.02R
PROSSER AWOS    N/A         63  46  54  W6      30.04S
RICHLAND AWOS   SUNNY       67  47  49  SE3     30.02R
#BASIN CITY 5SW N/A         62  49  62  SE3     29.97
#BENTON CITY    N/A         65  49  56  CALM    29.91R
#CONNELL 5N     N/A         62  49  62  SW2     29.98R
#CONNELL 5NW    N/A         61  49  65  SW6     29.95R
#ELTOPIA 6NW    N/A         59  50  72  CALM    28.98R
#KAHLOTUS       N/A         60  48  64  SW7     29.98R
#KENNEWICK 3S   N/A         61  49  65  N6      29.99R
#PATERSON       N/A         61  50  67  W9      30.00R
#SAGEMOOR 2W    N/A         60  49  67  SW5     29.84S
#TOUCHET 2S     N/A         62  50  65  SW10    29.98R
#WEST PASCO     N/A         67  52  59  CALM    30.07R
$$

WAZ029-251710-
FOOTHILLS OF THE BLUES...WASHINGTON

CITY            SKY/WX      TMP DP  RH  WIND    PRES   REMARKS
WALLA WALLA AP  SUNNY       62  45  54  SW15    30.03R
#CLYDE 6NW      N/A         58  47  67  SW14    29.99S
#DAYTON SCHOOL  N/A         59  41  51  NE7     30.03S
#LOWDEN 2SE     N/A         65  50  58  W7      29.99R
#PLEASANT VIEW 1N/A         58  46  64  S10     30.02R
#PRESCOTT       N/A         62  50  65  SW1     30.00S
#SUDBURY        N/A         62  N/A N/A CALM    N/A
#WHITMAN COLLEGEN/A         61  47  60  S12     30.05S
#WAITSBURG 8N   N/A         60  24  25  S16     29.88S
#WALLA WALLA 5E N/A         62  50  65  SW9     N/A
#WALLA WALLA U  N/A         63  48  58  CALM    30.00S
#WHITMAN MISSIONN/A         63  50  62  SW3     30.02S
$$

WAZ030-251710-
BLUE MOUNTAINS...WASHINGTON

CITY            SKY/WX      TMP DP  RH  WIND    PRES   REMARKS
#DIXIE 5SE      N/A         54  47  77  SW9     29.97S
$$

ORZ009-041-WAZ024-251710-
COLUMBIA RIVER GORGE

CITY            SKY/WX      TMP DP  RH  WIND    PRES   REMARKS
HOOD RIVER AP   CLOUDY      57  48  72  W6      30.09S
THE DALLES AP   SUNNY       65  47  52  NW14    30.05S
#ARLINGTON AIRPON/A         61  48  62  W12     30.02R
#CELILO DOT     N/A         64  47  54  W8      N/A
#LYLE           N/A         59  50  72  W18G28  30.08R
#MARYHILL 2W    N/A         60  50  69  SE10    N/A
#MOSIER 1S      N/A         58  39  49  NW9     30.06S
#MURDOCK        N/A         60  49  67  NW17G25 30.01S
#RUFUS DOT      N/A         62  48  60  W16     N/A
#SMITHIVILLE    N/A         61  49  65  NW16G24 30.03R

$$

ORZ510-251710-
NORTH CENTRAL OREGON

CITY            SKY/WX      TMP DP  RH  WIND    PRES   REMARKS
#ANTELOPE       N/A         53  44  71  SW6     29.92S
#CHENOWITH 1W   N/A         53  46  77  NW28    N/A
#COW CYN RST AREN/A         52  42  69  SW8     N/A
#DUFUR 9E       N/A         54  45  71  NW7     30.08R
#GRASS VALLEY   N/A         58  44  60  W1      N/A
#GRASS VALLEY 1SN/A         57  46  67  W2      30.01R
#KENT DOT       N/A         54  38  55  N8      N/A
#MAUPIN SCHOOL  N/A         56  47  72  NW1     30.09F
#MORO SCHOOL    N/A         57  50  77  W8      30.06R
#SHANIKO 4NW    N/A         51  -54  1  W10     30.07R
#TYGH VALLEY 2NEN/A         55  46  72  CALM    30.04S
#WAPANITIA AIRPON/A         59  46  62  NW7     30.05S
#WASCO 5NE      N/A         58  49  72  N7      30.01R
$$

ORZ511-251710-
CENTRAL OREGON

CITY            SKY/WX      TMP DP  RH  WIND    PRES   REMARKS
BEND AIRPORT    CLOUDY      54  41  61  N6      30.09R
MADRAS AIRPORT  SUNNY       59  46  62  CALM    30.10R
PRINEVILLE AP   CLOUDY      54  43  66  NW6     30.09R
REDMOND AIRPORT MOCLDY      56  40  55  N7      30.09R
#ASHWOOD SCHOOL N/A         56  42  59  W1      30.04R
#BEND 1SW       N/A         50  42  74  E2      N/A
#BEND-AWBREY    N/A         51  43  74  NE3     30.05R
#BEND-KIM LN    N/A         52  43  71  CALM    30.07R
#CULVER         N/A         55  45  69  CALM    30.01S
#CULVER 8W      N/A         56  42  59  CALM    30.08R
#LAKE BILLY CHINN/A         56  N/A N/A N6      30.16S
#MADRAS 4S      N/A         57  16  20  N7      30.14S
#POWELL BUTTE 3EN/A         51  42  71  W7      N/A
#POWELL BUTTE   N/A         58  44  60  NW5     29.96R
#PRINEVILLE 3N  N/A         54  46  74  W3      30.03R
#WARM SPRINGS   N/A         61  47  60  CALM    30.05R

$$


ORZ509-251710-
EAST SLOPES OF OREGON CASCADES

CITY            SKY/WX      TMP DP  RH  WIND    PRES   REMARKS
SISTERS AWOS    N/A         55  43  64  SW14    30.06R
#BLUE BOX PASS  N/A         43  N/A N/A CALM    N/A
#CAMP SHERMAN   N/A         55  40  57  CALM    30.11R
#LA PINE DOT    N/A         49  41  74  CALM    N/A
#LA PINE 4NW    N/A         48  39  71  W1      30.08S
#LAVA BUTTE DOT N/A         48  38  68  CALM    N/A
#SISTERS AIRPOR N/A         54  47  77  N12     30.17S
#SISTERS ODOT   N/A         53  N/A N/A S10     N/A
#SISTERS 3N     N/A         55  40  57  N5      30.06S
#SUNRIVER       N/A         52  41  66  S1      30.06S
#SUTTLE LK DOT  N/A         47  40  76  W3      N/A
#TUMALO 3W      N/A         51  41  68  CALM    29.92R
#WANOGA BUTTE D N/A         42  34  73  W6      N/A

$$

ORZ044-251710-
LOWER COLUMBIA BASIN...OREGON

CITY            SKY/WX      TMP DP  RH  WIND    PRES   REMARKS
#BOARDMAN SCHOOLN/A         63  49  60  SW7     30.02R
#ECHO 8SW       N/A         64  47  54  W12     30.03R
#I-84 EX 198 DOTN/A         61  45  56  E14     N/A
#UMATILLA SCHOOLN/A         65  54  68  W3      30.03S
#UMATILLA       N/A         63  47  56  SW2     29.95R
$$

ORZ507-251710-
NORTHERN FOOTHILLS OF THE BLUES

CITY            SKY/WX      TMP DP  RH  WIND    PRES   REMARKS
PENDLETON AIRPT SUNNY       62  43  50  W9      30.04R
#ADAMS 3WNW     N/A         59  47  64  S9      30.02R
#ATHENA         N/A         57  45  64  SW6     30.04R
#CAYUSE         N/A         59  46  62  W7      30.01S
#HELIX SCHOOL   N/A         57  47  69  W8      30.01S
#HELIX 3N       N/A         58  47  67  SW10    30.01R
#HELIX 6SW      N/A         59  47  64  CALM    30.03
#HOLDMAN 5SE    N/A         60  49  67  W8      30.03R
#HOLDMAN 6E     N/A         58  46  64  N8      29.82R
#M-F GROVE ELEM N/A         62  43  50  SW7     30.02R
#M-FREEWATER 5SEN/A         60  46  60  SW9     30.03S
#PENDLETON DNTN N/A         62  49  62  SW3     30.07R
#PDT AQUATIC CTRN/A         60  46  60  S3      30.05S
#PDT SUNRIDGE   N/A         62  47  58  CALM    30.05S
#PENDLETON 7NW  N/A         65  49  56  W7      32.27S
#PILOT ROCK 1S  N/A         64  43  46  S2      30.04R
#PILOT ROCK     N/A         62  46  56  W6      30.06R
#TUTUILLA       N/A         62  48  60  CALM    30.04S
#UMAPINE 2E     N/A         64  50  60  SW6     30.00R
#WESTON SCHOOL  N/A         57  43  59  VRB10   29.95R

$$

ORZ508-251710-
SOUTHERN FOOTHILLS OF THE BLUES

CITY            SKY/WX      TMP DP  RH  WIND    PRES   REMARKS
LEXINGTON       SUNNY       63  43  48  W10     30.08R
#AJAX           N/A         57  39  51  S6      27.81R
#CONDON SCHOOL  N/A         53  44  71  SW7     30.02R
#CONDON 5W      N/A         51  40  66  W9      30.03R
#FOSSIL SCHOOL  N/A         56  43  62  NW3     30.02R
#HEPPNER EOC    N/A         58  45  62  W5      29.96S
#HEPPNER 4NE    N/A         55  45  69  SW7     30.02R
#LEXINGTON 2SE  N/A         63  45  52  W9      30.01S
#RUGGS 5NE      N/A         56  42  59  W8      30.20R
#RUGGS 2SW      N/A         56  43  62  W9      30.04R

$$

ORZ502-503-251710-
BLUE MOUNTAINS

CITY            SKY/WX      TMP DP  RH  WIND    PRES   REMARKS
MEACHAM         MOSUNNY     53  40  61  VRB3    30.07R
#BATTLE MTN DOT N/A         46  44  93  S2      N/A
#CUTSFORTH PARK N/A         47  41  79  E1      29.85R
#GREENHORN 9SW  N/A         56  47  72  W1      26.26S
#HARDMAN 10S    N/A         61  34  36  N5      30.22R
#HEPPNER 15SE   N/A         50  42  74  SE5     25.59F
#LADD CYN SMT   N/A         52  38  59  N8      N/A
#LADD CREEK ODOTN/A         53  40  61  NE7     N/A
#LONG CREEK HS  N/A         50  46  86  CALM    N/A
#N POWDER DOT   N/A         55  43  64  NE13    N/A
#PIKES PEAK     N/A         49  42  77  SW16    27.99S WCI 43
#TOLLGATE       N/A         42  40  93  S2      29.92R
#TROY SCHOOL    N/A         54  46  74  CALM    29.88S
#UKIAH          N/A         47  43  86  CALM    29.97S
#WESTON 4E      N/A         52  44  74  S7      29.98S
$$

ORZ505-251710-
JOHN DAY BASIN

CITY            SKY/WX      TMP DP  RH  WIND    PRES   REMARKS
JOHN DAY        CLOUDY      51  45  80  W6      30.09R
#DAYVILLE SCHOOLN/A         55  47  74  CALM    30.04R
#MITCHELL       N/A         54  47  77  CALM    30.23R
#MITCHELL 8NW   N/A         53  42  66  NE5     30.23R
#MONUMENT HS    N/A         58  43  57  SE1     30.02S
#MT. VERNON 5SE N/A         48  43  83  CALM    30.04R
#SPRAY SCHOOL   N/A         60  N/A N/A CALM    N/A
#WINLOCK        N/A         57  43  59  E2      30.03R
$$

ORZ506-251710-
OCHOCO AND JOHN DAY HIGHLANDS

CITY            SKY/WX      TMP DP  RH  WIND    PRES   REMARKS
#BUCK CREEK DOT N/A         49  43  80  NW5     N/A
#HORSE RIDGE DO N/A         47  41  79  E2      N/A
#KEYES SMT DOT  N/A         48  40  74  W8      N/A
#PAULINA SCHOOL N/A         51  41  68  S2      N/A
#PINE MTN OBS   N/A         39  37  92  NW1     N/A
#PRAIRIE CITY   N/A         52  44  74  CALM    30.21R
#SENECA         N/A         48  N/A N/A SW1     N/A
#SENECA 9NW     N/A         46  41  83  CALM    30.01S
$$

ORZ049-251710-
GRANDE RONDE VALLEY

CITY            SKY/WX      TMP DP  RH  WIND    PRES   REMARKS
LA GRANDE       SUNNY       61  39  44  W13     30.05R
#COVE           N/A         55  49  80  N1      30.08R
#COVE SCHOOL    N/A         55  45  69  CALM    30.06S
#COVE 6NW       N/A         53  47  80  CALM    29.94S
#ELGIN 3N       N/A         52  50  93  CALM    30.03S
#ELGIN 1E       N/A         48  43  83  CALM    N/A
#ISLAND CITY 4N N/A         55  50  83  CALM    30.16R
#LADD CYN DOT   N/A         54  45  71  NW2     N/A
#UNION 1S       N/A         56  47  72  CALM    29.93R
$$

ORZ050-251710-
WALLOWA COUNTY

CITY            SKY/WX      TMP DP  RH  WIND    PRES   REMARKS
#ENTERPRISE AP  N/A         49  29  46  CALM    29.99R
#ENTERPRISE HS  N/A         47  45  93  CALM    30.06S
#IMNAHA SCHOOL  N/A         54  46  74  SE2     30.03S
#IMNAHA 10S     N/A         51  44  77  SW1     30.03S
#JOSEPH 3N      N/A         47  40  76  NW2     30.06R
#JOSEPH 3W      N/A         49  43  80  E1      29.88R
#LOSTINE        N/A         47  42  83  CALM    29.85R
#LOSTINE 3SE    N/A         46  43  89  CALM    30.05R
#MT HOWARD 8000 N/A         34  33  96  CALM    30.08R
#PROMISE 1S     N/A         51  45  80  CALM    30.11R
#WALLOWA SCHOOL N/A         44  43  96  CALM    30.03R



$$



USA.gov is the U.S. government's official web portal to all federal, state and local government web resources and services.